Project,Study,Ord_Occ,Event_Num,Cast_ID,Date_Time_UTC,Date_Time_PST,Lat_Dec,Lon_Dec,Sta_ID,Line,Sta,Depth,Pressure,PrQ,Temp1,Temp1Q,Temp2,Temp2Q,TempAve,Salt1,Salt1Q,Salt1_Corr,Salt2,Salt2Q,Salt2_Corr,SaltAve_Corr,Ox1,Ox1Q,Ox1_CruiseCorr,Ox1_StaCorr,Ox2,Ox2Q,Ox2_CruiseCorr,Ox2_StaCorr,OxAve_StaCorr,Ox1uM,Ox1uM_CruiseCorr,Ox1uM_StaCorr,Ox2uM,Ox2uM_CruiseCorr,Ox2uM_StaCorr,OxAveuM_StaCorr,FluorV,FluorQ,EstChl_CruiseCorr,EstChl_StaCorr,ISUSV,ISUSQ,EstNO3_CruiseCorr,EstNO3_StaCorr,SigThetaTS1,SigThetaTS1Q,SigThetaTS2,SigThetaTS2Q,BAT,XMiss,TransQ,pH,pHQ,SPAR,SPARQ,PAR,PARQ,PoT1,PoT2,DynHt,SVA,OxSat1,OxSat2,BTL_Depth,BTL_Temp,SaltB,OxB,OxBuM,Chl-a,Phaeo,NO3,NO2,NH4,PO4,SIL
CalCOFI,2007SR,061,63,2007_061d,25-Jul-2020 05:37:40,24-Jul-2020 21:37:40,33.38672,-124.32256,076.7 100.0,076.7,100.0,2.000,2.014,,17.9359,,17.9357,,17.9358,33.0230,,33.0232,33.0237,,33.0253,33.0243,5.3126,,5.5334,5.5440,4.2172,,6.1265,4.4106,4.9773,231.750,241.4357,243.8375,183.967,401.2826,192.6539,218.2457,0.0345,,,0.0601,-99.0,,-99.0,-99.0,23.7741,,23.7748,,0.6735,84.5039,,8.120,,1.9043E+00,,8.8188E-01,,17.9356,17.9354,0.0039,,97.625,77.496,,,,,,,,,,,,
CalCOFI,2007SR,061,63,2007_061d,25-Jul-2020 05:37:52,24-Jul-2020 21:37:52,33.38672,-124.32256,076.7 100.0,076.7,100.0,3.000,3.021,,17.9331,,17.9332,,17.9332,33.0229,,33.0231,33.0236,,33.0252,33.0242,5.3146,,5.5355,5.5461,4.2161,,6.1239,4.4080,4.9771,231.838,241.5276,243.9311,183.918,401.4978,192.5359,218.2335,0.0343,,,0.0588,-99.0,,-99.0,-99.0,23.7748,,23.7753,,0.6745,84.4821,,8.122,,1.9043E+00,,7.4682E-01,,17.9326,17.9328,0.0178,,97.657,77.472,3,17.930,33.0243,5.566,243.12,0.066,0.017,0.07,0.00,0.11,0.32,1.22
CalCOFI,2007SR,061,63,2007_061d,25-Jul-2020 05:37:54,24-Jul-2020 21:37:54,33.38672,-124.32256,076.7 100.0,076.7,100.0,4.000,4.029,,17.9326,,17.9321,,17.9324,33.0228,,33.0230,33.0236,,33.0252,33.0241,5.3113,,5.5321,5.5426,4.2169,,6.1258,4.4099,4.9763,231.695,241.3783,243.7789,183.955,401.1481,192.6250,218.2020,0.0341,,,0.0575,-99.0,,-99.0,-99.0,23.7749,,23.7756,,0.6745,84.4822,,8.122,,1.9043E+00,,6.9343E-01,,17.9319,17.9314,0.0225,,97.596,77.486,,,,,,,,,,,,
CalCOFI,2007SR,061,63,2007_061d,25-Jul-2020 05:37:58,24-Jul-2020 21:37:58,33.38672,-124.32256,076.7 100.0,076.7,100.0,5.000,5.036,,17.9323,,17.9323,,17.9323,33.0229,,33.0231,33.0236,,33.0252,33.0242,5.3112,,5.5320,5.5425,4.2173,,6.1268,4.4108,4.9767,231.690,241.3731,243.7736,183.969,401.1359,192.6588,218.2162,0.0337,,,0.0550,-99.0,,-99.0,-99.0,23.7751,,23.7756,,0.6726,84.5216,,8.122,,1.9043E+00,,6.3205E-01,,17.9315,17.9314,0.0269,,97.593,77.492,,,,,,,,,,,,
CalCOFI,2007SR,061,63,2007_061d,25-Jul-2020 05:38:00,24-Jul-2020 21:38:00,33.38672,-124.32256,076.7 100.0,076.7,100.0,6.000,6.043,,17.9328,,17.9324,,17.9326,33.0227,,33.0229,33.0235,,33.0251,33.0240,5.3103,,5.5310,5.5416,4.2178,,6.1280,4.4120,4.9768,231.648,241.3292,243.7289,183.993,401.0331,192.7166,218.2228,0.0378,,0.0199,0.0802,-99.0,,-99.0,-99.0,23.7748,,23.7755,,0.6729,84.5160,,8.122,,1.9043E+00,,5.8814E-01,,17.9317,17.9314,0.0310,,97.576,77.502,,,,,,,,,,,,
CalCOFI,2007SR,061,63,2007_061d,25-Jul-2020 05:38:01,24-Jul-2020 21:38:01,33.38672,-124.32256,076.7 100.0,076.7,100.0,7.000,7.050,,17.9346,,17.9345,,17.9346,33.0230,,33.0232,33.0236,,33.0252,33.0242,5.3129,,5.5337,5.5443,4.2182,,6.1289,4.4129,4.9786,231.766,241.4524,243.8545,184.010,401.3217,192.7575,218.3060,0.0341,,,0.0575,-99.0,,-99.0,-99.0,23.7746,,23.7752,,0.6728,84.5169,,8.122,,1.9043E+00,,5.7114E-01,,17.9334,17.9333,0.0352,,97.629,77.513,,,,,,,,,,,,
CalCOFI,2007SR,061,63,2007_061d,25-Jul-2020 05:38:04,24-Jul-2020 21:38:04,33.38673,-124.32256,076.7 100.0,076.7,100.0,8.000,8.057,,17.9349,,17.9348,,17.9349,33.0229,,33.0231,33.0235,,33.0251,33.0241,5.3076,,5.5282,5.5387,4.2192,,6.1313,4.4152,4.9770,231.532,241.2082,243.6054,184.054,400.7494,192.8636,218.2345,0.0339,,,0.0563,-99.0,,-99.0,-99.0,23.7745,,23.7751,,0.6728,84.5174,,8.121,,1.9043E+00,,5.4205E-01,,17.9336,17.9334,0.0398,,97.531,77.532,,,,,,,,,,,,
CalCOFI,2007SR,061,63,2007_061d,25-Jul-2020 05:38:07,24-Jul-2020 21:38:07,33.38674,-124.32256,076.7 100.0,076.7,100.0,9.000,9.064,,17.9373,,17.9392,,17.9383,33.0229,,33.0231,33.0244,,33.0260,33.0246,5.3132,,5.5341,5.5446,4.2242,,6.1432,4.4268,4.9857,231.775,241.4618,243.8641,184.272,401.3438,193.3888,218.6265,0.0342,,,0.0582,-99.0,,-99.0,-99.0,23.7740,,23.7747,,0.6751,84.4700,,8.121,,1.9043E+00,,5.1634E-01,,17.9358,17.9377,0.0445,,97.638,77.630,,,,,,,,,,,,
CalCOFI,2007SR,061,63,2007_061d,25-Jul-2020 05:38:07,24-Jul-2020 21:38:07,33.38674,-124.32256,076.7 100.0,076.7,100.0,10.000,10.072,,17.9404,,17.9416,,17.9410,33.0232,,33.0234,33.0240,,33.0256,33.0245,5.3118,,5.5326,5.5432,4.2231,,6.1406,4.4242,4.9837,231.716,241.4002,243.8013,184.222,401.1994,193.2684,218.5349,0.0361,,,0.0700,-99.0,,-99.0,-99.0,23.7735,,23.7738,,0.6741,84.4910,,8.121,,1.9043E+00,,5.0697E-01,,17.9387,17.9399,0.0486,,97.619,77.613,,,,,,,,,,,,
CalCOFI,2007SR,061,63,2007_061d,25-Jul-2020 05:38:09,24-Jul-2020 21:38:09,33.38674,-124.32256,076.7 100.0,076.7,100.0,11.000,11.079,,17.9395,,17.9401,,17.9398,33.0230,,33.0232,33.0238,,33.0254,33.0243,5.3125,,5.5333,5.5439,4.2235,,6.1416,4.4251,4.9845,231.749,241.4347,243.8364,184.243,401.2802,193.3190,218.5777,0.0367,,0.0070,0.0736,-99.0,,-99.0,-99.0,23.7737,,23.7741,,0.6741,84.4896,,8.120,,1.9043E+00,,4.9796E-01,,17.9377,17.9383,0.0527,,97.631,77.619,11,17.932,33.0247,5.529,241.51,0.067,0.016,0.0,0.00,0.09,0.31,1.21
CalCOFI,2007SR,061,63,2007_061d,25-Jul-2020 05:38:13,24-Jul-2020 21:38:13,33.38674,-124.32256,076.7 100.0,076.7,100.0,12.000,12.086,,17.9425,,17.9429,,17.9427,33.0235,,33.0237,33.0244,,33.0260,33.0249,5.3084,,5.5290,5.5396,4.2237,,6.1420,4.4256,4.9826,231.568,241.2457,243.6438,184.249,400.8375,193.3334,218.4886,0.0331,,,0.0511,-99.0,,-99.0,-99.0,23.7733,,23.7739,,0.6733,84.5075,,8.118,,1.9043E+00,,4.6747E-01,,17.9404,17.9408,0.0571,,97.561,77.626,,,,,,,,,,,,
CalCOFI,2007SR,061,63,2007_061d,25-Jul-2020 05:38:14,24-Jul-2020 21:38:14,33.38674,-124.32256,076.7 100.0,076.7,100.0,13.000,13.093,,17.9432,,17.9433,,17.9433,33.0238,,33.0240,33.0247,,33.0263,33.0252,5.3128,,5.5336,5.5442,4.2237,,6.1420,4.4256,4.9849,231.761,241.4472,243.8492,184.250,401.3095,193.3358,218.5925,0.0368,,0.0082,0.0742,-99.0,,-99.0,-99.0,23.7735,,23.7741,,0.6730,84.5142,,8.119,,1.9043E+00,,4.5275E-01,,17.9410,17.9411,0.0612,,97.644,77.627,,,,,,,,,,,,
CalCOFI,2007SR,061,63,2007_061d,25-Jul-2020 05:38:16,24-Jul-2020 21:38:16,33.38674,-124.32256,076.7 100.0,076.7,100.0,14.000,14.100,,17.9433,,17.9432,,17.9433,33.0237,,33.0239,33.0246,,33.0262,33.0251,5.3097,,5.5304,5.5409,4.2246,,6.1442,4.4277,4.9843,231.624,241.3042,243.7034,184.289,400.9744,193.4298,218.5666,0.0340,,,0.0569,-99.0,,-99.0,-99.0,23.7734,,23.7741,,0.6725,84.5242,,8.120,,1.9043E+00,,4.4336E-01,,17.9410,17.9409,0.0654,,97.586,77.643,,,,,,,,,,,,
CalCOFI,2007SR,061,63,2007_061d,25-Jul-2020 05:38:18,24-Jul-2020 21:38:18,33.38674,-124.32256,076.7 100.0,076.7,100.0,15.000,15.108,,17.9436,,17.9435,,17.9436,33.0236,,33.0238,33.0243,,33.0259,33.0249,5.3081,,5.5287,5.5392,4.2252,,6.1456,4.4291,4.9842,231.553,241.2301,243.6278,184.317,400.8008,193.4973,218.5626,0.0338,,,0.0556,-99.0,,-99.0,-99.0,23.7733,,23.7738,,0.6742,84.4878,,8.120,,1.9043E+00,,4.2276E-01,,17.9411,17.9410,0.0695,,97.557,77.656,,,,,,,,,,,,
CalCOFI,2007SR,061,63,2007_061d,25-Jul-2020 05:38:20,24-Jul-2020 21:38:20,33.38674,-124.32256,076.7 100.0,076.7,100.0,16.000,16.115,,17.9432,,17.9431,,17.9432,33.0231,,33.0233,33.0239,,33.0255,33.0244,5.3099,,5.5306,5.5411,4.2249,,6.1449,4.4284,4.9848,231.631,241.3115,243.7108,184.301,400.9915,193.4587,218.5848,0.0342,,,0.0582,-99.0,,-99.0,-99.0,23.7730,,23.7737,,0.6732,84.5097,,8.120,,1.9043E+00,,4.1105E-01,,17.9405,17.9404,0.0737,,97.588,77.648,,,,,,,,,,,,
CalCOFI,2007SR,061,63,2007_061d,25-Jul-2020 05:38:23,24-Jul-2020 21:38:23,33.38674,-124.32256,076.7 100.0,076.7,100.0,17.000,17.122,,17.9436,,17.9435,,17.9436,33.0236,,33.0238,33.0243,,33.0259,33.0249,5.3130,,5.5339,5.5444,4.2257,,6.1468,4.4302,4.9873,231.768,241.4545,243.8566,184.337,401.3266,193.5454,218.7010,0.0334,,,0.0531,1.7429E-07,,0.0000,-99.0,23.7734,,23.7739,,0.6729,84.5147,,8.119,,1.9043E+00,,3.8865E-01,,17.9407,17.9407,0.0778,,97.647,77.664,,,,,,,,,,,,
CalCOFI,2007SR,061,63,2007_061d,25-Jul-2020 05:38:24,24-Jul-2020 21:38:24,33.38674,-124.32256,076.7 100.0,076.7,100.0,18.000,18.129,,17.9442,,17.9444,,17.9443,33.0244,,33.0246,33.0252,,33.0268,33.0257,5.3105,,5.5312,5.5418,4.2263,,6.1482,4.4316,4.9867,231.661,241.3428,243.7427,184.362,401.0649,193.6057,218.6742,0.0338,,,0.0556,3.8891E-07,,0.0000,-99.0,23.7738,,23.7745,,0.6766,84.4371,,8.119,,1.9043E+00,,3.6920E-01,,17.9412,17.9413,0.0820,,97.604,77.676,,,,,,,,,,,,
CalCOFI,2007SR,061,63,2007_061d,25-Jul-2020 05:38:26,24-Jul-2020 21:38:26,33.38674,-124.32256,076.7 100.0,076.7,100.0,19.000,19.136,,17.9450,,17.9449,,17.9450,33.0245,,33.0247,33.0255,,33.0271,33.0259,5.3102,,5.5309,5.5415,4.2261,,6.1478,4.4312,4.9864,231.646,241.3272,243.7268,184.355,401.0282,193.5888,218.6578,0.0339,,,0.0563,3.0360E-08,,0.0000,-99.0,23.7738,,23.7746,,0.6734,84.5047,,8.119,,1.9043E+00,,3.5997E-01,,17.9417,17.9416,0.0861,,97.599,77.674,,,,,,,,,,,,
CalCOFI,2007SR,061,63,2007_061d,25-Jul-2020 05:38:28,24-Jul-2020 21:38:28,33.38674,-124.32256,076.7 100.0,076.7,100.0,20.000,20.144,,17.9448,,17.9449,,17.9449,33.0248,,33.0250,33.0255,,33.0271,33.0261,5.3098,,5.5305,5.5410,4.2272,,6.1504,4.4337,4.9874,231.627,241.3073,243.7065,184.401,400.9818,193.6996,218.7031,0.0338,,,0.0556,-99.0,,-99.0,-99.0,23.7741,,23.7746,,0.6744,84.4831,,8.119,,1.9043E+00,,3.4803E-01,,17.9414,17.9415,0.0903,,97.591,77.694,,,,,,,,,,,,
CalCOFI,2007SR,061,63,2007_061d,25-Jul-2020 05:38:30,24-Jul-2020 21:38:30,33.38674,-124.32256,076.7 100.0,076.7,100.0,21.000,21.151,,17.9445,,17.9446,,17.9446,33.0255,,33.0257,33.0263,,33.0279,33.0268,5.3181,,5.5392,5.5498,4.2266,,6.1490,4.4323,4.9911,231.990,241.6863,244.0929,184.375,401.8696,193.6370,218.8650,0.0339,,,0.0563,-99.0,,-99.0,-99.0,23.7748,,23.7753,,0.6729,84.5151,,8.119,,1.9043E+00,,3.3611E-01,,17.9410,17.9411,0.0944,,97.744,77.683,,,,,,,,,,,,
CalCOFI,2007SR,061,63,2007_061d,25-Jul-2020 05:38:32,24-Jul-2020 21:38:32,33.38676,-124.32256,076.7 100.0,076.7,100.0,22.000,22.158,,17.9448,,17.9449,,17.9449,33.0259,,33.0261,33.0268,,33.0284,33.0273,5.3164,,5.5374,5.5480,4.2253,,6.1459,4.4293,4.9887,231.918,241.6111,244.0163,184.317,401.6935,193.4973,218.7568,0.0339,,,0.0563,-99.0,,-99.0,-99.0,23.7750,,23.7757,,0.6733,84.5067,,8.119,,1.9043E+00,,3.2110E-01,,17.9410,17.9412,0.0986,,97.714,77.659,,,,,,,,,,,,
CalCOFI,2007SR,061,63,2007_061d,25-Jul-2020 05:38:34,24-Jul-2020 21:38:34,33.38676,-124.32256,076.7 100.0,076.7,100.0,23.000,23.165,,17.9452,,17.9451,,17.9452,33.0261,,33.0263,33.0269,,33.0285,33.0274,5.3121,,5.5329,5.5435,4.2255,,6.1463,4.4298,4.9867,231.730,241.4148,243.8162,184.329,401.2337,193.5262,218.6712,0.0340,,,0.0569,-99.0,,-99.0,-99.0,23.7751,,23.7758,,0.6763,84.4443,,8.119,,1.9043E+00,,3.1086E-01,,17.9413,17.9412,0.1027,,97.636,77.664,,,,,,,,,,,,
CalCOFI,2007SR,061,63,2007_061d,25-Jul-2020 05:38:37,24-Jul-2020 21:38:37,33.38676,-124.32256,076.7 100.0,076.7,100.0,24.000,24.173,,17.9441,,17.9449,,17.9445,33.0250,,33.0252,33.0262,,33.0278,33.0265,5.3128,,5.5336,5.5442,4.2264,,6.1485,4.4319,4.9881,231.759,241.4451,243.8470,184.369,401.3046,193.6225,218.7348,0.0338,,,0.0556,-99.0,,-99.0,-99.0,23.7746,,23.7753,,0.6740,84.4926,,8.119,,1.9043E+00,,2.9168E-01,,17.9400,17.9408,0.1069,,97.645,77.680,,,,,,,,,,,,
CalCOFI,2007SR,061,63,2007_061d,25-Jul-2020 05:38:38,24-Jul-2020 21:38:38,33.38676,-124.32256,076.7 100.0,076.7,100.0,25.000,25.180,,17.9444,,17.9443,,17.9444,33.0244,,33.0246,33.0252,,33.0268,33.0257,5.3070,,5.5276,5.5381,4.2267,,6.1492,4.4326,4.9854,231.507,241.1821,243.5788,184.381,400.6883,193.6515,218.6152,0.0342,,,0.0582,-99.0,,-99.0,-99.0,23.7741,,23.7747,,0.6752,84.4689,,8.118,,1.9043E+00,,2.8687E-01,,17.9402,17.9401,0.1111,,97.539,77.684,,,,,,,,,,,,
CalCOFI,2007SR,061,63,2007_061d,25-Jul-2020 05:38:40,24-Jul-2020 21:38:40,33.38676,-124.32256,076.7 100.0,076.7,100.0,26.000,26.187,,17.9438,,17.9440,,17.9439,33.0256,,33.0258,33.0267,,33.0283,33.0271,5.3087,,5.5294,5.5399,4.2262,,6.1480,4.4314,4.9857,231.581,241.2593,243.6576,184.360,400.8693,193.6009,218.6293,0.0342,,,0.0582,-99.0,,-99.0,-99.0,23.7752,,23.7760,,0.6731,84.5110,,8.118,,1.9043E+00,,2.7235E-01,,17.9394,17.9396,0.1152,,97.570,77.676,26,17.935,33.0266,5.548,242.32,0.070,0.021,0.0,0.00,0.00,0.32,1.21
CalCOFI,2007SR,061,63,2007_061d,25-Jul-2020 05:38:43,24-Jul-2020 21:38:43,33.38676,-124.32256,076.7 100.0,076.7,100.0,27.000,27.194,,17.9463,,17.9463,,17.9463,33.0288,,33.0290,33.0300,,33.0316,33.0303,5.3106,,5.5313,5.5419,4.2280,,6.1523,4.4356,4.9888,231.662,241.3439,243.7438,184.436,401.0674,193.7840,218.7639,0.0334,,,0.0531,0.0001,,0.0000,-99.0,23.7771,,23.7780,,0.6727,84.5195,,8.118,,1.9043E+00,,2.4442E-01,,17.9417,17.9417,0.1194,,97.611,77.713,,,,,,,,,,,,
CalCOFI,2007SR,061,63,2007_061d,25-Jul-2020 05:38:44,24-Jul-2020 21:38:44,33.38676,-124.32256,076.7 100.0,076.7,100.0,28.000,28.202,,17.9490,,17.9485,,17.9488,33.0312,,33.0314,33.0316,,33.0332,33.0323,5.3040,,5.5244,5.5349,4.2254,,6.1461,4.4295,4.9822,231.374,241.0432,243.4373,184.322,400.3630,193.5093,218.4733,0.0342,,,0.0582,0.0001,,0.0000,-99.0,23.7783,,23.7788,,0.6739,84.4944,,8.118,,1.9043E+00,,2.3974E-01,,17.9442,17.9437,0.1235,,97.496,77.669,,,,,,,,,,,,
CalCOFI,2007SR,061,63,2007_061d,25-Jul-2020 05:38:46,24-Jul-2020 21:38:46,33.38676,-124.32256,076.7 100.0,076.7,100.0,29.000,29.209,,17.9498,,17.9498,,17.9498,33.0335,,33.0337,33.0338,,33.0354,33.0346,5.3124,,5.5332,5.5438,4.2237,,6.1420,4.4256,4.9847,231.739,241.4242,243.8258,184.248,401.2557,193.3310,218.5784,0.0340,,,0.0569,0.0001,,0.0000,-99.0,23.7799,,23.7801,,0.6727,84.5191,,8.118,,1.9043E+00,,2.3354E-01,,17.9449,17.9449,0.1277,,97.653,77.641,,,,,,,,,,,,
CalCOFI,2007SR,061,63,2007_061d,25-Jul-2020 05:38:48,24-Jul-2020 21:38:48,33.38676,-124.32256,076.7 100.0,076.7,100.0,30.000,30.216,,17.9503,,17.9500,,17.9502,33.0347,,33.0349,33.0352,,33.0368,33.0359,5.3101,,5.5308,5.5414,4.2250,,6.1451,4.4286,4.9850,231.640,241.3209,243.7204,184.305,401.0136,193.4683,218.5944,0.0338,,,0.0556,0.0001,,0.0000,-99.0,23.7808,,23.7812,,0.6730,84.5138,,8.118,,1.9043E+00,,2.2237E-01,,17.9452,17.9449,0.1318,,97.613,77.666,,,,,,,,,,,,
CalCOFI,2007SR,061,63,2007_061d,25-Jul-2020 05:38:51,24-Jul-2020 21:38:51,33.38676,-124.32256,076.7 100.0,076.7,100.0,31.000,31.224,,17.9517,,17.9514,,17.9516,33.0381,,33.0383,33.0376,,33.0392,33.0388,5.3112,,5.5320,5.5425,4.2252,,6.1456,4.4291,4.9858,231.689,241.3720,243.7725,184.315,401.1334,193.4924,218.6325,0.0335,,,0.0537,0.0001,,0.0000,-99.0,23.7831,,23.7828,,0.6737,84.4979,,8.118,,1.9043E+00,,1.9857E-01,,17.9464,17.9461,0.1360,,97.638,77.673,,,,,,,,,,,,
CalCOFI,2007SR,061,63,2007_061d,25-Jul-2020 05:38:53,24-Jul-2020 21:38:53,33.38676,-124.32256,076.7 100.0,076.7,100.0,32.000,32.231,,17.9533,,17.9533,,17.9533,33.0463,,33.0465,33.0465,,33.0481,33.0473,5.3124,,5.5332,5.5438,4.2256,,6.1466,4.4300,4.9869,231.741,241.4263,243.8279,184.331,401.2606,193.5310,218.6795,0.0336,,,0.0543,0.0001,,0.0000,-99.0,23.7890,,23.7891,,0.6730,84.5139,,8.118,,1.9043E+00,,1.9536E-01,,17.9479,17.9478,0.1401,,97.668,77.687,,,,,,,,,,,,
CalCOFI,2007SR,061,63,2007_061d,25-Jul-2020 05:38:54,24-Jul-2020 21:38:54,33.38676,-124.32256,076.7 100.0,076.7,100.0,33.000,33.238,,17.9528,,17.9530,,17.9529,33.0516,,33.0518,33.0518,,33.0534,33.0526,5.3103,,5.5310,5.5416,4.2229,,6.1401,4.4238,4.9827,231.644,241.3251,243.7246,184.213,401.0233,193.2467,218.4857,0.0343,,,0.0588,0.0001,,0.0000,-99.0,23.7932,,23.7933,,0.6731,84.5120,,8.118,,1.9043E+00,,1.8514E-01,,17.9472,17.9474,0.1442,,97.630,77.640,,,,,,,,,,,,
CalCOFI,2007SR,061,63,2007_061d,25-Jul-2020 05:38:56,24-Jul-2020 21:38:56,33.38676,-124.32256,076.7 100.0,076.7,100.0,34.000,34.245,,17.9518,,17.9521,,17.9520,33.0593,,33.0595,33.0592,,33.0608,33.0602,5.3165,,5.5375,5.5481,4.2238,,6.1423,4.4258,4.9870,231.916,241.6090,244.0142,184.250,401.6886,193.3358,218.6750,0.0342,,,0.0582,0.0001,,0.0000,-99.0,23.7994,,23.7992,,0.6739,84.4953,,8.118,,1.9043E+00,,1.7919E-01,,17.9460,17.9463,0.1484,,97.748,77.658,,,,,,,,,,,,
CalCOFI,2007SR,061,63,2007_061d,25-Jul-2020 05:38:58,24-Jul-2020 21:38:58,33.38676,-124.32256,076.7 100.0,076.7,100.0,35.000,35.253,,17.9510,,17.9510,,17.9510,33.0639,,33.0641,33.0660,,33.0676,33.0659,5.3144,,5.5353,5.5459,4.2232,,6.1408,4.4245,4.9852,231.824,241.5130,243.9162,184.222,401.4636,193.2684,218.5923,0.0341,,,0.0575,-99.0,,-99.0,-99.0,23.8032,,23.8047,,0.6730,84.5138,,8.118,,1.9043E+00,,1.6285E-01,,17.9450,17.9451,0.1525,,97.711,77.648,,,,,,,,,,,,
CalCOFI,2007SR,061,63,2007_061d,25-Jul-2020 05:39:01,24-Jul-2020 21:39:01,33.38676,-124.32256,076.7 100.0,076.7,100.0,36.000,36.260,,17.9463,,17.9468,,17.9466,33.0806,,33.0808,33.0805,,33.0821,33.0815,5.3183,,5.5394,5.5500,4.2242,,6.1432,4.4268,4.9884,231.989,241.6852,244.0919,184.263,401.8672,193.3671,218.7295,0.0345,,,0.0601,-99.0,,-99.0,-99.0,23.8171,,23.8169,,0.6734,84.5052,,8.118,,1.9043E+00,,1.5006E-01,,17.9402,17.9407,0.1566,,97.783,77.667,,,,,,,,,,,,
CalCOFI,2007SR,061,63,2007_061d,25-Jul-2020 05:39:03,24-Jul-2020 21:39:03,33.38676,-124.32256,076.7 100.0,076.7,100.0,37.000,37.267,,17.9451,,17.9451,,17.9451,33.0891,,33.0893,33.0887,,33.0903,33.0898,5.3180,,5.5391,5.5497,4.2239,,6.1425,4.4261,4.9879,231.975,241.6706,244.0770,184.252,401.8329,193.3406,218.7088,0.0345,,,0.0601,-99.0,,-99.0,-99.0,23.8239,,23.8237,,0.6727,84.5206,,8.118,,1.9043E+00,,1.3947E-01,,17.9388,17.9389,0.1608,,97.780,77.664,,,,,,,,,,,,
CalCOFI,2007SR,061,63,2007_061d,25-Jul-2020 05:39:04,24-Jul-2020 21:39:04,33.38678,-124.32256,076.7 100.0,076.7,100.0,38.000,38.275,,17.9425,,17.9422,,17.9424,33.0954,,33.0956,33.0968,,33.0984,33.0970,5.3172,,5.5382,5.5488,4.2247,,6.1444,4.4279,4.9884,231.938,241.6320,244.0376,184.283,401.7424,193.4153,218.7265,0.0354,,,0.0657,7.9300E-08,,0.0000,-99.0,23.8295,,23.8305,,0.6720,84.5351,,8.118,,1.9043E+00,,1.3600E-01,,17.9360,17.9358,0.1649,,97.764,77.678,,,,,,,,,,,,
CalCOFI,2007SR,061,63,2007_061d,25-Jul-2020 05:39:06,24-Jul-2020 21:39:06,33.38678,-124.32255,076.7 100.0,076.7,100.0,39.000,39.282,,17.9423,,17.9420,,17.9422,33.0954,,33.0956,33.0971,,33.0987,33.0972,5.3216,,5.5428,5.5535,4.2253,,6.1459,4.4293,4.9914,232.129,241.8314,244.2409,184.307,402.2096,193.4732,218.8571,0.0349,,,0.0626,1.0942E-09,,0.0000,-99.0,23.8295,,23.8309,,0.6724,84.5269,,8.118,,1.9043E+00,,1.2408E-01,,17.9357,17.9354,0.1690,,97.844,77.688,,,,,,,,,,,,
CalCOFI,2007SR,061,63,2007_061d,25-Jul-2020 05:39:09,24-Jul-2020 21:39:09,33.38678,-124.32256,076.7 100.0,076.7,100.0,40.000,40.289,,17.9354,,17.9359,,17.9357,33.1052,,33.1054,33.1057,,33.1073,33.1064,5.3197,,5.5409,5.5515,4.2261,,6.1478,4.4312,4.9914,232.048,241.7468,244.1547,184.342,402.0115,193.5575,218.8561,0.0351,,,0.0638,-99.0,,-99.0,-99.0,23.8387,,23.8390,,0.6732,84.5082,,8.118,,1.9043E+00,,1.1671E-01,,17.9286,17.9291,0.1731,,97.804,77.698,,,,,,,,,,,,
CalCOFI,2007SR,061,63,2007_061d,25-Jul-2020 05:39:11,24-Jul-2020 21:39:11,33.38678,-124.32256,076.7 100.0,076.7,100.0,41.000,41.297,,17.9269,,17.9282,,17.9276,33.1104,,33.1106,33.1106,,33.1122,33.1114,5.3255,,5.5469,5.5576,4.2271,,6.1502,4.4335,4.9956,232.297,242.0067,244.4197,184.387,402.6205,193.6659,219.0428,0.0359,,,0.0688,-99.0,,-99.0,-99.0,23.8448,,23.8447,,0.6741,84.4904,,8.118,,1.9043E+00,,1.0801E-01,,17.9200,17.9212,0.1772,,97.897,77.708,41,17.828,33.1245,,242.65,0.095,0.027,0.0,0.00,0.00,0.31,1.20
CalCOFI,2007SR,061,63,2007_061d,25-Jul-2020 05:39:12,24-Jul-2020 21:39:12,33.38678,-124.32256,076.7 100.0,076.7,100.0,42.000,42.304,,17.9194,,17.9159,,17.9177,33.1147,,33.1149,33.1173,,33.1189,33.1169,5.3265,,5.5480,5.5587,4.2278,,6.1518,4.4351,4.9969,232.342,242.0537,244.4676,184.413,402.7306,193.7286,219.0981,0.0365,,0.0047,0.0724,-99.0,,-99.0,-99.0,23.8500,,23.8529,,0.6754,84.4632,,8.118,,1.9043E+00,,1.0821E-01,,17.9123,17.9087,0.1813,,97.905,77.705,,,,,,,,,,,,
CalCOFI,2007SR,061,63,2007_061d,25-Jul-2020 05:39:14,24-Jul-2020 21:39:14,33.38678,-124.32255,076.7 100.0,076.7,100.0,43.000,43.311,,17.9090,,17.9109,,17.9100,33.1200,,33.1202,33.1198,,33.1214,33.1208,5.3241,,5.5455,5.5561,4.2279,,6.1521,4.4353,4.9957,232.233,241.9399,244.3516,184.420,402.4640,193.7454,219.0485,0.0373,,0.0141,0.0772,-99.0,,-99.0,-99.0,23.8566,,23.8560,,0.6753,84.4650,,8.118,,1.9043E+00,,9.8657E-02,,17.9017,17.9036,0.1854,,97.843,77.701,,,,,,,,,,,,
CalCOFI,2007SR,061,63,2007_061d,25-Jul-2020 05:39:18,24-Jul-2020 21:39:18,33.38678,-124.32256,076.7 100.0,076.7,100.0,44.000,44.319,,17.9019,,17.9028,,17.9024,33.1221,,33.1223,33.1224,,33.1240,33.1232,5.3259,,5.5473,5.5580,4.2276,,6.1513,4.4346,4.9963,232.310,242.0203,244.4335,184.406,402.6523,193.7117,219.0726,0.0371,,0.0117,0.0760,-99.0,,-99.0,-99.0,23.8600,,23.8599,,0.6748,84.4756,,8.118,,1.9043E+00,,7.8664E-02,,17.8944,17.8954,0.1896,,97.864,77.685,,,,,,,,,,,,
CalCOFI,2007SR,061,63,2007_061d,25-Jul-2020 05:39:19,24-Jul-2020 21:39:19,33.38678,-124.32256,076.7 100.0,076.7,100.0,45.000,45.326,,17.8804,,17.8789,,17.8797,33.1282,,33.1284,33.1290,,33.1306,33.1295,5.3283,,5.5498,5.5606,4.2312,,6.1599,4.4430,5.0018,232.413,242.1278,244.5432,184.561,402.9042,194.0852,219.3142,0.0375,,0.0164,0.0784,-99.0,,-99.0,-99.0,23.8699,,23.8709,,0.6758,84.4554,,8.118,,1.9043E+00,,7.7498E-02,,17.8727,17.8713,0.1936,,97.872,77.719,,,,,,,,,,,,
CalCOFI,2007SR,061,63,2007_061d,25-Jul-2020 05:39:20,24-Jul-2020 21:39:20,33.38678,-124.32256,076.7 100.0,076.7,100.0,46.000,46.333,,17.8673,,17.8655,,17.8664,33.1309,,33.1311,33.1323,,33.1339,33.1325,5.3358,,5.5577,5.5685,4.2318,,6.1614,4.4444,5.0065,232.741,242.4702,244.8923,184.587,403.7064,194.1478,219.5201,0.0387,,0.0305,0.0854,-99.0,,-99.0,-99.0,23.8752,,23.8766,,0.6756,84.4598,,8.118,,1.9043E+00,,7.4029E-02,,17.8595,17.8577,0.1977,,97.988,77.712,,,,,,,,,,,,
CalCOFI,2007SR,061,63,2007_061d,25-Jul-2020 05:39:22,24-Jul-2020 21:39:22,33.38678,-124.32255,076.7 100.0,076.7,100.0,47.000,47.341,,17.8585,,17.8622,,17.8604,33.1328,,33.1330,33.1329,,33.1345,33.1338,5.3313,,5.5530,5.5637,4.2317,,6.1611,4.4441,5.0039,232.544,242.2646,244.6826,184.582,403.2246,194.1358,219.4092,0.0392,,0.0364,0.0883,-99.0,,-99.0,-99.0,23.8788,,23.8780,,0.6752,84.4688,,8.118,,1.9043E+00,,6.4200E-02,,17.8506,17.8543,0.2018,,97.890,77.706,,,,,,,,,,,,
CalCOFI,2007SR,061,63,2007_061d,25-Jul-2020 05:39:25,24-Jul-2020 21:39:25,33.38678,-124.32256,076.7 100.0,076.7,100.0,48.000,48.348,,17.8573,,17.8557,,17.8565,33.1321,,33.1323,33.1335,,33.1351,33.1337,5.3330,,5.5548,5.5655,4.2330,,6.1642,4.4471,5.0063,232.619,242.3429,244.7624,184.635,403.4081,194.2635,219.5130,0.0394,,0.0387,0.0894,-99.0,,-99.0,-99.0,23.8786,,23.8801,,0.6768,84.4341,,8.118,,1.9043E+00,,5.7487E-02,,17.8491,17.8476,0.2058,,97.919,77.719,,,,,,,,,,,,
CalCOFI,2007SR,061,63,2007_061d,25-Jul-2020 05:39:27,24-Jul-2020 21:39:27,33.38678,-124.32256,076.7 100.0,076.7,100.0,49.000,49.355,,17.8363,,17.8366,,17.8365,33.1389,,33.1391,33.1403,,33.1419,33.1405,5.3369,,5.5588,5.5696,4.2345,,6.1678,4.4506,5.0101,232.784,242.5151,244.9380,184.701,403.8116,194.4225,219.6803,0.0408,,0.0552,0.0973,-99.0,,-99.0,-99.0,23.8889,,23.8900,,0.6765,84.4398,,8.118,,1.9043E+00,,4.7616E-02,,17.8280,17.8283,0.2099,,97.954,77.722,,,,,,,,,,,,
CalCOFI,2007SR,061,63,2007_061d,25-Jul-2020 05:39:28,24-Jul-2020 21:39:28,33.38678,-124.32256,076.7 100.0,076.7,100.0,50.000,50.363,,17.8124,,17.8120,,17.8122,33.1449,,33.1451,33.1454,,33.1470,33.1461,5.3374,,5.5593,5.5702,4.2396,,6.1800,4.4624,5.0163,232.805,242.5370,244.9604,184.922,403.8630,194.9550,219.9577,0.0440,,0.0927,0.1143,-99.0,,-99.0,-99.0,23.8993,,23.8998,,0.6779,84.4107,,8.118,,1.9043E+00,,4.3701E-02,,17.8039,17.8035,0.2139,,97.923,77.782,,,,,,,,,,,,